Tracking 28081 objects as of 27-Sep-2023
HD Live streaming from Space Station
objects crossing your sky now

OBJECT F

Track OBJECT F now!
10-day predictions


NORAD ID: 47859
Int'l Code: 2021-020F
Perigee: 1,037.9 km
Apogee: 1,162.6 km
Inclination: 63.4 °
Period: 107.1 minutes
Semi major axis: 7471 km
RCS: Unknown
Launch date: March 13, 2021
Source: People's Republic of China (PRC)
Launch site: Jiuquan Satellite Launch Center, China (JSC)
Your satellite tracking list
Your tracking list is empty




NASA's NSSDC Master Catalog

Two Line Element Set (TLE):
1 47859U 21020F   23270.07635380  .00000036  00000-0  21162-3 0  9998
2 47859  63.4099 295.5636 0083487 359.2102   0.8779 13.44357961124746
Source of the keplerian elements: AFSPC